Tracking 19638 objects as of 21-Apr-2019
HD Live streaming from Space Station
objects crossing your sky now

THORAD AGENA D DEB

Track THORAD AGENA D DEB now!
10-day predictions


NORAD ID: 13518
Int'l Code: 1970-025NR
Perigee: 965.6 km
Apogee: 972.9 km
Inclination: 100.0 °
Period: 104.3 minutes
Semi major axis: 7340 km
RCS: 0.0562 m2 (small)
Launch date: April 8, 1970
Source: United States (US)
Launch site: AIR FORCE WESTERN TEST RANGE (AFWTR)

Note: This is SATELLITE DEBRIS
aabbcc
Your satellite tracking list
Your tracking list is empty




NASA's NSSDC Master Catalog

Two Line Element Set (TLE):
1 13518U 70025NR  19110.82157684  .00000394  00000-0  42362-3 0  9991
2 13518 100.0299  55.3456 0004968  73.3499 341.2877 13.80500419889548
Source of the keplerian elements: AFSPC